Fort Polk, LA

2:43 AM CST on February 19, 2018 (GMT -0600)
Fort Polk

Weather History for KAQV - October, 2012

Change the Weather History Date:

Wednesday, October 17, 2012

  Actual Average (KPOE) Record (KPOE)
Temperature  
Mean Temperature 70 °F -  
Max Temperature 82 °F 75 °F 88 °F (2011)
Min Temperature 57 °F 56 °F 39 °F (2001)
Cooling Degree Days 4    
Growing Degree Days 20 (Base 50)    
Moisture  
Dew Point 62 °F    
Average Humidity 85    
Maximum Humidity 100    
Minimum Humidity 60    
Precipitation  
Precipitation 0.03 in - - ()
Sea Level Pressure  
Sea Level Pressure 29.74 in    
Wind  
Wind Speed 2 mph (South)    
Max Wind Speed 10 mph    
Max Gust Speed 20 mph    
Visibility 6 miles    
Events Fog , Rain , Thunderstorm    
Averages and records for this station are not official NWS values.
T = Trace of Precipitation, MM = Missing Value Source: NWS Daily Summary

Daily Weather History Graph

Daily Weather History Graph

Search for Another Location

Airport or City:

Trip Planner

Search our weather history database for the weather conditions in past years. The results will help you decide how hot, cold, wet, or windy it might be!

Date:

Astronomy

Oct. 17, 2012 Rise Set
Actual Time 7:17 AM CDT 6:38 PM CDT
Civil Twilight 6:53 AM CDT 7:02 PM CDT
Nautical Twilight 6:25 AM CDT 7:31 PM CDT
Astronomical Twilight 5:56 AM CDT 7:59 PM CDT
Moon 9:41 AM CDT (10/17) 8:27 PM CDT (10/17)
Length of Visible Light 12h 09m
Length of Day
11h 20m
Waxing Crescent, 7% of the Moon is Illuminated
Oct 17
Waxing Crescent
Oct 21
First Quarter
Oct 29
Full
Nov 6
Last Quarter
Nov 13
New

Hourly Weather History & Observations

Time (CDT) Temp. Heat Index Dew Point Humidity Pressure Visibility Wind Dir Wind Speed Gust Speed Precip Events Conditions
12:56 AM 60.1 °F - 59.0 °F 96% 29.81 in 4.0 mi Calm Calm - N/A   Mostly Cloudy
1:45 AM 60.8 °F - 60.8 °F 100% 29.81 in 6.0 mi Calm Calm - N/A   Scattered Clouds
1:56 AM 61.0 °F - 59.0 °F 93% 29.80 in 4.0 mi Calm Calm - N/A   Clear
2:07 AM 60.8 °F - 59.0 °F 94% 29.80 in 1.8 mi Calm Calm - N/A   Clear
2:18 AM 60.8 °F - 57.2 °F 88% 29.80 in 3.0 mi Calm Calm - N/A   Clear
2:31 AM 59.0 °F - 57.2 °F 94% 29.79 in 2.0 mi Calm Calm - N/A   Partly Cloudy
2:38 AM 59.0 °F - 57.2 °F 94% 29.79 in 1.0 mi Calm Calm - N/A   Mist
2:51 AM 59.0 °F - 57.2 °F 94% 29.79 in 1.2 mi Calm Calm - N/A   Partly Cloudy
2:56 AM 57.9 °F - 57.0 °F 97% 29.78 in 1.8 mi Calm Calm - N/A   Partly Cloudy
3:03 AM 57.2 °F - 57.2 °F 100% 29.79 in 3.0 mi Calm Calm - N/A   Partly Cloudy
3:56 AM 57.0 °F - 55.9 °F 96% 29.78 in 4.0 mi Calm Calm - N/A   Clear
4:09 AM 57.2 °F - 55.4 °F 94% 29.78 in 2.0 mi Calm Calm - N/A   Scattered Clouds
4:12 AM 57.2 °F - 57.2 °F 100% 29.78 in 1.2 mi Calm Calm - N/A   Mostly Cloudy
4:20 AM 59.0 °F - 57.2 °F 94% 29.78 in 0.5 mi Calm Calm - N/A Fog Fog
4:56 AM 57.9 °F - 57.0 °F 97% 29.78 in 0.5 mi Calm Calm - N/A Fog Fog
5:10 AM 57.2 °F - 57.2 °F 100% 29.78 in 1.2 mi Calm Calm - N/A   Overcast
5:27 AM 57.2 °F - 55.4 °F 94% 29.78 in 2.5 mi Calm Calm - N/A   Mostly Cloudy
5:34 AM 57.2 °F - 55.4 °F 94% 29.78 in 4.0 mi Calm Calm - N/A   Mostly Cloudy
5:42 AM 57.2 °F - 55.4 °F 94% 29.78 in 4.0 mi Calm Calm - N/A   Scattered Clouds
5:56 AM 57.0 °F - 55.9 °F 96% 29.78 in 3.0 mi Calm Calm - N/A   Clear
6:20 AM 57.2 °F - 55.4 °F 94% 29.78 in 4.0 mi Calm Calm - N/A   Partly Cloudy
6:56 AM 57.0 °F - 55.9 °F 96% 29.79 in 4.0 mi SSE 3.5 mph - N/A   Scattered Clouds
7:56 AM 59.0 °F - 57.9 °F 96% 29.78 in 5.0 mi SSE 3.5 mph - N/A   Clear
8:56 AM 62.1 °F - 60.1 °F 93% 29.78 in 10.0 mi Variable 4.6 mph - N/A   Mostly Cloudy
9:56 AM 70.0 °F - 62.1 °F 76% 29.77 in 10.0 mi South 5.8 mph - N/A   Clear
10:56 AM 73.9 °F - 63.0 °F 68% 29.77 in 10.0 mi South 8.1 mph 17.3 mph N/A   Mostly Cloudy
11:56 AM 78.1 °F - 64.9 °F 64% 29.74 in 10.0 mi South 10.4 mph 19.6 mph N/A   Mostly Cloudy
12:46 PM 80.6 °F 82.7 °F 66.2 °F 61% 29.72 in 10.0 mi Variable 6.9 mph 16.1 mph N/A   Mostly Cloudy
12:56 PM 81.0 °F 83.3 °F 66.9 °F 62% 29.71 in 10.0 mi South 9.2 mph - N/A   Mostly Cloudy
1:13 PM 80.6 °F 82.7 °F 66.2 °F 61% 29.71 in 10.0 mi SSW 8.1 mph - N/A   Overcast
1:56 PM 82.0 °F 84.9 °F 68.0 °F 62% 29.68 in 10.0 mi South 10.4 mph 16.1 mph N/A   Mostly Cloudy
2:56 PM 82.9 °F 85.8 °F 68.0 °F 60% 29.64 in 10.0 mi South 9.2 mph 16.1 mph N/A   Scattered Clouds
3:56 PM 82.0 °F 84.9 °F 68.0 °F 62% 29.62 in 10.0 mi South 10.4 mph 18.4 mph N/A   Mostly Cloudy
4:56 PM 82.9 °F 85.8 °F 68.0 °F 60% 29.62 in 10.0 mi Variable 6.9 mph - N/A   Mostly Cloudy
5:56 PM 81.0 °F 84.4 °F 70.0 °F 69% 29.62 in 10.0 mi Variable 5.8 mph - N/A   Scattered Clouds
6:56 PM 79.0 °F - 70.0 °F 74% 29.63 in 10.0 mi South 5.8 mph - N/A   Clear
7:56 PM 77.0 °F - 70.0 °F 79% 29.64 in 10.0 mi Variable 4.6 mph - N/A   Partly Cloudy
8:56 PM 77.0 °F - 71.1 °F 82% 29.68 in 10.0 mi SSW 5.8 mph - N/A   Clear
9:56 PM 75.9 °F - 71.1 °F 85% 29.68 in 10.0 mi Variable 6.9 mph - N/A   Clear
10:29 PM 75.2 °F - 71.6 °F 89% 29.69 in 10.0 mi Variable 6.9 mph - N/A   Mostly Cloudy
10:56 PM 75.9 °F - 72.0 °F 87% 29.69 in 10.0 mi SSW 9.2 mph - N/A   Mostly Cloudy
11:38 PM 75.2 °F - 71.6 °F 89% 29.70 in 10.0 mi Variable 5.8 mph - N/A Thunderstorm Thunderstorm
11:56 PM 75.9 °F - 72.0 °F 87% 29.70 in 9.0 mi NNW 9.2 mph - 0.03 in Rain , Thunderstorm Light Thunderstorms and Rain